Location: Delray Park Estates
(36.2567°N, 86.6255°W)
Time: 21:23:42
(UTC+00:00)

Daily predictions for brighter satellites

Satellite Brightness Start Highest point End
(mag) Time Altitude Azimuth Time Altitude Azimuth Time Altitude Azimuth
AQUARIUS 4.2 23:20:06 10° SSE 23:24:35 87° ENE 23:29:06 10° NNW
Cosmos 2297 4.5 23:19:43 10° SSE 23:24:37 31° ESE 23:29:34 10° NE
Cosmos 1727 Rocket 4.5 23:20:49 10° SSE 23:26:24 37° E 23:32:00 10° NNE
Cosmos 1242 Rocket 2.7 23:25:20 10° NNW 23:29:01 78° W 23:32:38 10° S
Cosmos 1777 Rocket 3.9 23:28:35 10° NNW 23:33:47 70° ENE 23:38:57 10° SSE
Cosmos 44 3.5 23:29:00 10° S 23:33:52 52° ESE 23:38:32 10° NE
Cosmos 1535 Rocket 4.5 23:27:59 10° N 23:34:10 88° E 23:40:15 10° S
Cosmos 1300 3.6 23:35:20 10° SSE 23:38:38 28° E 23:41:55 10° NNE
Gbstr 26 Del rocket 4.3 23:34:17 10° NW 23:40:13 52° NE 23:47:21 10° ESE
Meteor 1-11 4.3 23:39:06 10° N 23:44:55 80° E 23:50:44 10° S
NOSS 3-2 (C) 3.3 23:39:25 10° SSW 23:44:57 66° ESE 23:51:07 10° NE
OAO 3 Copernicus 4.4 23:44:06 10° W 23:49:11 79° S 23:53:25 15° E
SMAP 4.4 23:44:47 10° S 23:49:13 45° W 23:53:41 10° NNW
H-2A R/B 4.0 23:46:20 10° S 23:50:05 46° W 23:53:53 10° NNW
Cosmos 1833 Rocket 2.6 23:45:18 10° NNW 23:50:55 68° ENE 23:56:29 10° SSE
